Regional Weather Roundup
Issued by NWS

Home | Current Version | Previous Version | Graphics & Text | Print | Product List | Glossary On
Versions: 1 2 3 4 5 6 7 8 9 10 11 12 13 14 15 16 17 18 19 20 21 22 23 24 25 26 27
000
ASUS45 KCYS 161310
RWRWY

WYOMING REGIONAL WEATHER ROUNDUP
NATIONAL WEATHER SERVICE CHEYENNE WY
700 AM MDT WED AUG 16 2017

NOTE:  "FAIR" INDICATES FEW OR NO CLOUDS BELOW 12,000 FEET
WITH NO SIGNIFICANT WEATHER AND/OR OBSTRUCTIONS TO VISIBILITY.

WYZ001-161400-
YELLOWSTONE NATIONAL PARK

CITY           SKY/WX    TMP DP  RH WIND       PRES   REMARKS
LK YELLOWSTONE   N/A     34  34 100 CALM      30.27R
W YELLOWSTONE  NOT AVBL

$$
WYZ002>013-054>058-071-098>099-161400-
NORTHERN WYOMING

CITY           SKY/WX    TMP DP  RH WIND       PRES   REMARKS
JACKSON        FAIR      38  34  85 N5        30.22R WCI  34
CODY           FAIR      57  41  55 SW8       30.09S
GREYBULL       FAIR      53  48  83 E5        30.05R
WORLAND        FAIR      51  47  86 CALM      30.06R
SHERIDAN       FAIR      48  44  86 CALM      30.03S
BUFFALO        FAIR      55  36  48 W8        30.08S
GILLETTE       FAIR      54  46  74 W9        30.04S
HULETT         FAIR      52  48  87 SE8       30.07R
NEWCASTLE      FAIR      54  46  76 N15       30.04S

$$
WYZ014>020-022>026-101>103-161400-
CENTRAL WYOMING

CITY           SKY/WX    TMP DP  RH WIND       PRES   REMARKS
BIG PINEY      FAIR      38  36  92 E6        30.24R WCI  33
PINEDALE       FAIR      36  36 100 W6        30.26R WCI  31
DUBOIS         FAIR      37  34  87 W8        30.23R WCI  31
LANDER           N/A    N/A N/A N/A MISG      30.14R
RIVERTON       FAIR      49  47  93 NW9       30.14R
CASPER         FAIR      48  47  96 SW7       30.12R
DOUGLAS        FAIR      48  46  93 NW7       30.11R

$$
WYZ021-027>030-104>119-161400-
SOUTHERN WYOMING

CITY           SKY/WX    TMP DP  RH WIND       PRES   REMARKS
EVANSTON       FAIR      45  31  58 S7        30.22R
KEMMERER         N/A     41  37  87 N10       30.23R
FORT BRIDGER   FAIR      44  37  77 S9        30.25R
ROCK SPRINGS   FAIR      48  43  82 CALM      30.21R
RAWLINS        FAIR      45  42  89 NE5       30.20R
SARATOGA       FAIR      43  43 100 SE7       30.22R
LARAMIE        FAIR      45  43  93 CALM      30.19R
CHEYENNE       FAIR      52  45  77 NW9       30.11R
TORRINGTON     MOCLDY    56  52  86 W10       30.02R
PINE BLUFFS    FAIR      54  52  94 NW6       30.07S

$$




USA.gov is the U.S. government's official web portal to all federal, state and local government web resources and services.